Flag for Canada Weather past 2 weeks in Brantford, Ontario, Canada

Now
55 °F

Partly sunny.


Feels Like: 55 °F
Forecast: 49 / 73 °F
Wind: 5 mph from Northeast

Location: Hamilton Airport

Current Time: Aug 29, 2014 at 8:50:54 AM

Latest Report: Aug 29, 2014 at 8:00 AM


Visibility: 15 mi

Pressure: 30.19 "Hg

Humidity: 88%

Dew point: 52 °F

Location of BrantfordLocation

Historic Weather in Brantford — Graph

°F

Brantford temperature yesterday

Maximum temperature yesterday: 72 °F (at 4:00 PM)
Minimum temperature yesterday: 48 °F (at 7:00 AM)
Average temperature yesterday: 61 °F

Past Weeks' High & Low Weather Summary

 TemperatureHumidityPressure
High84 °F (Aug 26, 2:00 PM)100% (Aug 17, 3:00 AM)30.18 "Hg (Aug 17, 3:00 AM)
Low48 °F (Aug 28, 7:00 AM)43% (Aug 15, 4:00 PM)29.82 "Hg (Aug 19, 11:00 PM)
Average65 °F80%29.99 "Hg
* Reported Aug 14 7:00 AM — Aug 29 7:00 AM, Brantford, Weather by CustomWeather, © 2014

Note: Actual official high and low records may vary slightly from our data, if they occured in-between our weather recording intervals... More about our weather records

Advertising

Brantford weather history for previous 24 hours

 ConditionsComfort  
Time TempWeatherWind HumidityBarometerVisibility
7:00 AM
Aug 29
54 °FPassing clouds.5 mph88%30.18 "Hg15 mi
6:00 AM52 °FPassing clouds.7 mph82%30.16 "Hg15 mi
5:00 AM54 °FPassing clouds.6 mph82%30.15 "Hg15 mi
4:00 AM52 °FPassing clouds.6 mph88%30.15 "Hg15 mi
3:00 AM50 °FPassing clouds.2 mph88%30.16 "Hg15 mi
2:00 AM52 °FPassing clouds.No wind82%30.16 "Hg15 mi
1:00 AM55 °FPassing clouds.6 mph72%30.16 "Hg15 mi
12:00 AM55 °FPassing clouds.8 mph72%30.15 "Hg15 mi
11:00 PM
Aug 28
57 °FPassing clouds.6 mph63%30.14 "Hg15 mi
10:00 PM59 °FPassing clouds.6 mph68%30.14 "Hg15 mi
9:00 PM61 °FPassing clouds.7 mph63%30.12 "Hg15 mi
8:00 PM64 °FScattered clouds.6 mph56%30.10 "Hg15 mi
7:00 PM68 °FPassing clouds.6 mph53%30.09 "Hg15 mi
6:00 PM70 °FScattered clouds.6 mph50%30.09 "Hg15 mi
5:00 PM72 °FScattered clouds.9 mph47%30.09 "Hg15 mi
4:00 PM72 °FScattered clouds.9 mph47%30.09 "Hg15 mi
3:00 PM70 °FPartly sunny.9 mph46%30.10 "Hg15 mi
2:00 PM70 °FScattered clouds.3 mph46%30.11 "Hg15 mi
1:00 PM66 °FScattered clouds.7 mph52%30.11 "Hg15 mi
12:00 PM66 °FPartly sunny.9 mph52%30.13 "Hg15 mi
11:00 AM66 °FScattered clouds.8 mph56%30.13 "Hg15 mi
10:00 AM63 °FPassing clouds.12 mph64%30.13 "Hg15 mi
9:00 AM59 °FPassing clouds.9 mph77%30.12 "Hg15 mi
8:00 AM54 °FPassing clouds.6 mph94%30.11 "Hg15 mi
Weather by CustomWeather, © 2014

See weather overviewHow to use our weather pages